Location: Morlupo
(42.1333°N, 12.5000°E)
Time: 16:25:47
(UTC+00:00)

In-Cosmos 22 - Pass Details

Date: 18 September 2020
Orbit: 785 x 876 km, 81.2° (Epoch: 25 October)

Event Time Altitude Azimuth Distance (km) Brightness Sun altitude
Rises 19:10:08 0° 347° (NNW) 3,286 7.8 -21.8°
Reaches altitude 10° 19:12:30 10° 344° (NNW) 2,355 7.0 -22.2°
Maximum altitude 19:17:44 65° 264° (W) 872 4.4 -23.1°
Enters shadow 19:21:21 21° 187° (S) 1,747 5.7 -23.7°
